Hourly Data Report for January 07, 2022

BANCROFT AUTO
ONTARIO
Current Station Operator: ECCC - MSC

45°04'17.000" N
77°52'44.000" W
330.70 m
616I001
71294
WRK

Download Data

Hourly Data (January 2022)
Hourly Data Report for January 7, 2022
TIME
LST
Temp Definition
°C
Dew Point Definition
°C
Rel Hum Definition
%
Precip. Amount Definition
mm

Wind Dir Definition
10's deg

Wind Spd Definition
km/h
Visibility Definition
km
Stn Press Definition
kPa
Hmdx Definition


Wind Chill Definition


Weather Definition


00:00 -15.3 -17.8 81 0.0 5 4   97.16   -18 LegendNANA
01:00 -15.9 -18.4 81 0.0 4 4   97.13   -19 LegendNANA
02:00 -15.6 -17.7 84 0.0 33 4   97.10   -19 LegendNANA
03:00 -15.4 -17.6 83 0.0 33 5   97.10   -19 LegendNANA
04:00 -15.2 -17.4 84 0.0 34 3   97.07   -17 LegendNANA
05:00 -15.1 -17.3 83 0.0 33 4   97.06   -18 LegendNANA
06:00 -15.4 -17.7 83 0.0 33 4   97.10   -18 LegendNANA
07:00 -17.3 -19.5 83 0.0 35 4   97.13   -20 LegendNANA
08:00 -17.8 -19.8 84 0.0 33 5   97.14   -22 LegendNANA
09:00 -17.8 -20.4 80 0.0 31 8   97.24   -24 LegendNANA
10:00 -17.1 -20.6 75 0.0 35 10   97.28   -24 LegendNANA
11:00 -16.1 -20.1 71 0.0 32 10   97.30   -23 LegendNANA
12:00 -15.3 -19.8 69 0.0 31 11   97.30   -22 LegendNANA
13:00 -14.5 -19.2 68 0.0 30 10   97.31   -21 LegendNANA
14:00 -14.9 -19.9 66 0.0 33 12   97.36   -22 LegendNANA
15:00 -14.6 -19.3 67 0.0 33 10   97.45   -21 LegendNANA
16:00 -14.9 -18.9 71 0.0 33 11   97.59   -21 LegendNANA
17:00 -16.2 -19.7 74 0.0 32 8   97.76   -22 LegendNANA
18:00 -16.6 -20.2 74 0.0 32 12   97.92   -24 LegendNANA
19:00 -17.4 -21.0 74 0.0 31 12   98.06   -25 LegendNANA
20:00 -18.1 -21.6 74 0.0 32 14   98.20   -26 LegendNANA
21:00 -19.1 -22.4 75 0.0 32 8   98.30   -25 LegendNANA
22:00 -21.2 -23.6 81 0.0 0 1   98.43   -22 LegendNANA
23:00 -23.2 -25.4 83 0.0 2 3   98.52   -26 LegendNANA

Notes on Data Quality.

Legend

  • E = Estimated
  • M = Missing
  • NA = Not Available*
  • [empty] = Indicates an unobserved value
Date modified: